カタログに戻る

STARLINK-34559

運用中通信VLEO
NORAD 64706·PAYLOAD·🇺🇸 United States

打ち上げ Jun 28, 2025 から Vandenberg Space Force Base

Loading…

次のパス (今後24時間)

TLE

最新Source: CelesTrak SupGP

元期: Sep 15, 2026, 03:26 UTC

1 64706C 25142L   26258.14354167 -.00036397  00000+0 -12662-2 0  2587
2 64706  70.0014 195.1673 0003351 269.8376 300.3475 15.29595100    12

AllMySatでSTARLINK-34559をリアルタイム追跡

Download on the App Store